sat.trackr.live / text

‹ back to catalog

GONETS-M 16

NORAD 44907 · 2019-096C

PAYLOAD ACTIVE UNKNOWN

§ Identity

Operator
Country
CIS
Launch date
2019-12-26
Launch site
PLMSC
Launch vehicle
Mass (kg)
RCS (m²)

External: N2YO · Heavens-Above · Gunter

§ Orbital elements

Epoch: 2026-09-12T04:49:49.212192Z

Period
115.86 min
Inclination
82.5217°
Eccentricity
0.0011198
Mean motion
12.42894298 rev/d
Perigee alt
1,485.5 km
Apogee alt
1,503.2 km
Semi-major
7,872.5 km
B*
1.8399e-4
RAAN
30.0629°
Arg perigee
32.5776°
Mean anomaly
327.5992°
Rev number
30,444

§ Raw data

GONETS-M 161 44907U 19096C   26255.20126403  .00000035  00000+0  18399-3 0  99972 44907  82.5217  30.0629 0011198  32.5776 327.5992 12.42894298304442

JSON: /api/v1/satellites/44907 · /tle

For live sub-satellite position, see the globe view (requires WebGL).

§ Visibility from observer

Set your observer location to see the next 7 days of passes ≥ 10°. The values pass through the URL so the page stays shareable.

No JS? Fill the form by hand. The geolocation button needs JavaScript.

§ Radio — SatNOGS DB

ModeDescriptionDownlinkUplink
FM UHF Unknown 387.650 MHz

1 transmitter · refreshed weekly from db.satnogs.org